• In Portugal
  • List of Countries
  • For 7 days
  • Water Temperature
  • Satellite Maps
  • Weather Map
  • Weather Widgets
  • user-avatar
    Login

    Hourly Weather Keetmanshoop

    Today, 12 December, Tuesday

    Time Temperature Precipitation Wind Pressure Humidity
    00:00 +24°C° 0 mm 7 mps 676 mmHg 15%
    01:00 +23°C° 0 mm 6 mps 676 mmHg 15%
    02:00 +22°C° 0 mm 5 mps 676 mmHg 15%
    03:00 +22°C° 0 mm 5 mps 675 mmHg 16%
    04:00 +21°C° 0 mm 4 mps 675 mmHg 16%
    05:00 +21°C° 0 mm 4 mps 676 mmHg 15%
    06:00 +22°C° 0 mm 4 mps 676 mmHg 13%
    07:00 +23°C° 0 mm 4 mps 676 mmHg 11%
    08:00 +26°C° 0 mm 4 mps 677 mmHg 10%
    09:00 +28°C° 0 mm 4 mps 677 mmHg 8%
    10:00 +29°C° 0 mm 3 mps 677 mmHg 6%
    11:00 +31°C° 0 mm 3 mps 677 mmHg 5%
    12:00 +33°C° 0 mm 4 mps 677 mmHg 5%
    13:00 +34°C° 0 mm 4 mps 677 mmHg 4%
    14:00 +35°C° 0 mm 4 mps 676 mmHg 4%
    15:00 +35°C° 0 mm 4 mps 676 mmHg 4%
    16:00 +35°C° 0 mm 5 mps 675 mmHg 4%
    17:00 +34°C° 0 mm 6 mps 675 mmHg 6%
    18:00 +33°C° 0 mm 6 mps 675 mmHg 7%
    19:00 +32°C° 0 mm 7 mps 675 mmHg 8%
    20:00 +29°C° 0 mm 7 mps 675 mmHg 12%
    21:00 +28°C° 0 mm 7 mps 676 mmHg 17%
    22:00 +26°C° 0 mm 7 mps 676 mmHg 21%
    23:00 +24°C° 0 mm 6 mps 676 mmHg 24%

    Tomorrow, 13 December, Wednesday

    Time Temperature Precipitation Wind Pressure Humidity
    00:00 +25°C° 0 mm 5 mps 676 mmHg 26%
    01:00 +23°C° 0 mm 4 mps 676 mmHg 29%
    02:00 +22°C° 0 mm 4 mps 676 mmHg 30%
    03:00 +21°C° 0 mm 4 mps 676 mmHg 31%
    04:00 +20°C° 0 mm 4 mps 676 mmHg 32%
    05:00 +21°C° 0 mm 3 mps 676 mmHg 28%
    06:00 +21°C° 0 mm 3 mps 677 mmHg 24%
    07:00 +22°C° 0 mm 3 mps 677 mmHg 19%
    08:00 +25°C° 0 mm 3 mps 677 mmHg 15%
    09:00 +27°C° 0 mm 4 mps 677 mmHg 11%
    10:00 +29°C° 0 mm 4 mps 678 mmHg 8%
    11:00 +30°C° 0 mm 4 mps 677 mmHg 7%
    12:00 +33°C° 0 mm 4 mps 677 mmHg 5%
    13:00 +34°C° 0 mm 5 mps 677 mmHg 4%
    14:00 +34°C° 0 mm 6 mps 676 mmHg 4%
    15:00 +35°C° 0 mm 7 mps 676 mmHg 4%
    16:00 +35°C° 0 mm 8 mps 676 mmHg 4%
    17:00 +33°C° 0 mm 8 mps 676 mmHg 6%
    18:00 +32°C° 0 mm 8 mps 676 mmHg 8%
    19:00 +29°C° 0 mm 9 mps 676 mmHg 10%
    20:00 +28°C° 0 mm 8 mps 677 mmHg 16%
    21:00 +26°C° 0 mm 8 mps 677 mmHg 22%
    22:00 +23°C° 0 mm 7 mps 678 mmHg 27%
    23:00 +23°C° 0 mm 6 mps 677 mmHg 29%

    Day after tomorrow, 14 December, Thursday

    Time Temperature Precipitation Wind Pressure Humidity
    00:00 +22°C° 0 mm 6 mps 677 mmHg 31%
    01:00 +21°C° 0 mm 6 mps 677 mmHg 33%
    02:00 +20°C° 0 mm 5 mps 677 mmHg 35%
    03:00 +20°C° 0 mm 4 mps 677 mmHg 37%
    04:00 +19°C° 0 mm 4 mps 677 mmHg 39%
    05:00 +19°C° 0 mm 4 mps 677 mmHg 39%
    06:00 +20°C° 0 mm 3 mps 678 mmHg 38%
    07:00 +20°C° 0 mm 3 mps 678 mmHg 37%
    08:00 +22°C° 0 mm 3 mps 679 mmHg 32%
    09:00 +25°C° 0 mm 3 mps 679 mmHg 28%
    10:00 +27°C° 0 mm 3 mps 679 mmHg 24%
    11:00 +29°C° 0 mm 3 mps 679 mmHg 21%
    12:00 +30°C° 0 mm 3 mps 678 mmHg 18%
    13:00 +33°C° 0 mm 3 mps 678 mmHg 15%
    14:00 +33°C° 0 mm 3 mps 678 mmHg 14%
    15:00 +34°C° 0 mm 4 mps 677 mmHg 13%
    16:00 +35°C° 0 mm 4 mps 677 mmHg 12%
    17:00 +34°C° 0 mm 5 mps 677 mmHg 13%
    18:00 +33°C° 0 mm 5 mps 677 mmHg 14%
    19:00 +32°C° 0 mm 5 mps 677 mmHg 15%
    20:00 +32°C° 0 mm 5 mps 677 mmHg 17%
    21:00 +30°C° 0 mm 5 mps 678 mmHg 18%
    22:00 +29°C° 0 mm 5 mps 678 mmHg 20%
    23:00 +28°C° 0 mm 5 mps 678 mmHg 22%

    15 December, Friday

    Time Temperature Precipitation Wind Pressure Humidity
    00:00 +27°C° 0 mm 4 mps 677 mmHg 24%
    01:00 +26°C° 0 mm 4 mps 677 mmHg 25%
    02:00 +26°C° 0 mm 3 mps 677 mmHg 28%
    03:00 +25°C° 0 mm 3 mps 677 mmHg 30%
    04:00 +24°C° 0 mm 3 mps 677 mmHg 32%
    05:00 +25°C° 0 mm 2 mps 677 mmHg 31%
    06:00 +26°C° 0 mm 2 mps 678 mmHg 29%
    07:00 +27°C° 0 mm 2 mps 678 mmHg 28%
    08:00 +29°C° 0 mm 2 mps 679 mmHg 23%
    09:00 +31°C° 0 mm 3 mps 679 mmHg 19%
    10:00 +34°C° 0 mm 3 mps 679 mmHg 14%
    11:00 +36°C° 0 mm 3 mps 678 mmHg 13%
    12:00 +37°C° 0 mm 3 mps 678 mmHg 11%
    13:00 +38°C° 0 mm 2 mps 677 mmHg 10%
    14:00 +39°C° 0 mm 2 mps 677 mmHg 9%
    15:00 +39°C° 0 mm 2 mps 676 mmHg 9%
    16:00 +40°C° 0 mm 2 mps 676 mmHg 8%
    17:00 +39°C° 0 mm 2 mps 676 mmHg 9%
    18:00 +39°C° 0 mm 2 mps 676 mmHg 9%
    19:00 +38°C° 0 mm 2 mps 676 mmHg 9%
    20:00 +38°C° 0 mm 3 mps 676 mmHg 10%
    21:00 +37°C° 0 mm 4 mps 676 mmHg 10%
    22:00 +36°C° 0 mm 4 mps 676 mmHg 11%
    23:00 +35°C° 0 mm 5 mps 676 mmHg 12%

    16 December, Saturday

    Time Temperature Precipitation Wind Pressure Humidity
    00:00 +34°C° 0 mm 5 mps 676 mmHg 14%
    01:00 +33°C° 0 mm 5 mps 675 mmHg 16%
    02:00 +33°C° 0 mm 5 mps 675 mmHg 16%
    03:00 +32°C° 0 mm 5 mps 675 mmHg 17%
    04:00 +32°C° 0 mm 5 mps 675 mmHg 17%
    05:00 +32°C° 0.1 mm 5 mps 675 mmHg 18%
    06:00 +32°C° 0.1 mm 6 mps 675 mmHg 18%
    07:00 +32°C° 0.1 mm 6 mps 676 mmHg 19%
    08:00 +34°C° 0 mm 5 mps 676 mmHg 17%
    09:00 +35°C° 0 mm 5 mps 676 mmHg 16%
    10:00 +37°C° 0 mm 5 mps 676 mmHg 15%
    11:00 +39°C° 0 mm 6 mps 676 mmHg 13%
    12:00 +40°C° 0 mm 6 mps 676 mmHg 11%
    13:00 +41°C° 0 mm 7 mps 675 mmHg 10%
    14:00 +41°C° 0 mm 8 mps 675 mmHg 9%
    15:00 +43°C° 0 mm 8 mps 675 mmHg 8%
    16:00 +43°C° 0 mm 9 mps 675 mmHg 8%
    17:00 +39°C° 0 mm 9 mps 675 mmHg 13%
    18:00 +36°C° 0 mm 10 mps 675 mmHg 18%
    19:00 +31°C° 0 mm 10 mps 675 mmHg 23%
    20:00 +29°C° 0 mm 9 mps 675 mmHg 24%
    21:00 +28°C° 0 mm 8 mps 676 mmHg 25%
    22:00 +27°C° 0 mm 7 mps 677 mmHg 26%
    23:00 +27°C° 0 mm 6 mps 677 mmHg 26%

    17 December, Sunday

    Time Temperature Precipitation Wind Pressure Humidity
    00:00 +26°C° 0 mm 6 mps 676 mmHg 27%
    01:00 +25°C° 0 mm 5 mps 676 mmHg 27%
    02:00 +23°C° 0 mm 5 mps 676 mmHg 27%
    03:00 +23°C° 0 mm 5 mps 676 mmHg 27%
    04:00 +22°C° 0 mm 5 mps 676 mmHg 27%
    05:00 +22°C° 0 mm 5 mps 677 mmHg 27%
    06:00 +23°C° 0 mm 4 mps 677 mmHg 27%
    07:00 +23°C° 0 mm 4 mps 677 mmHg 27%
    08:00 +26°C° 0 mm 4 mps 677 mmHg 23%
    09:00 +28°C° 0 mm 4 mps 677 mmHg 20%
    10:00 +29°C° 0 mm 3 mps 678 mmHg 16%
    11:00 +32°C° 0 mm 4 mps 677 mmHg 14%
    12:00 +33°C° 0 mm 4 mps 677 mmHg 12%
    13:00 +35°C° 0 mm 4 mps 676 mmHg 10%
    14:00 +35°C° 0 mm 4 mps 676 mmHg 9%
    15:00 +35°C° 0 mm 4 mps 676 mmHg 9%
    16:00 +36°C° 0 mm 4 mps 675 mmHg 9%
    17:00 +34°C° 0 mm 6 mps 675 mmHg 12%
    18:00 +33°C° 0 mm 8 mps 676 mmHg 14%
    19:00 +31°C° 0 mm 10 mps 676 mmHg 17%
    20:00 +29°C° 0 mm 9 mps 676 mmHg 24%
    21:00 +27°C° 0 mm 9 mps 676 mmHg 30%
    22:00 +24°C° 0 mm 9 mps 676 mmHg 37%
    23:00 +23°C° 0 mm 8 mps 676 mmHg 37%
    Show more